Find Starlink 34822

NORAD ID: 65086 Int'l Des: 2025-167 Owner: SPXS Country: US Constellation: starlink operational
LEOCIRCULAR

实时位置

正在加载3D地球...

关于 Starlink 34822

正在加载描述...

即将过境

Passes for default location (London). Set your location on the main map for personalized predictions.

高度历史

Loading altitude history...

两行轨道根数

1 65086U 25167J 26121.78367447 .00074958 00000-0 25116-2 0 9994
2 65086 53.1598 140.4112 0000996 80.8825 279.2288 15.30276452 41600
Epoch: May 1, 2026 • Age: 8 hours

当前状态

高度 479.7 km
速度 7.63 km/s
星下点 48.54°N, 67.92°W
发射日期 Aug 4, 2025
运行时间 0.7 years
类型 internet

技术详情

分类 Payload
质量 575.00 kg
干质量 530.00 kg
总质量 575.00 kg
长度 0.30 m
直径 4.10 m
跨度 29.00 m
形状 Box + pan
制造商 SPXS
平台类型 Starlink V2MO
阶段状态 In Orbit
所有者/国家 SPXS/US

Most Searched